,,,PA_Meas_PMT16A,,PR_Meas_QMR101_102,,RH_Meas_QMH101,,SR_Meas_QMS101,,TA_Meas_QMH101,,GenWind,,GenWind,
date,time,status,PA,status,PR,status,RH,status,SR,status,TA,status,DirAvg,status,SpdAvg,
2010-05-05, 00:00:04,VALID,1007.69,VALID,0,VALID,102.368,VALID,0,VALID,24.8828,VALID,86,VALID,0.642969,
2010-05-05, 00:01:04,VALID,1007.68,VALID,0,VALID,102.36,VALID,0,VALID,24.9023,VALID,70,VALID,0.409375,
2010-05-05, 00:02:04,VALID,1007.7,VALID,0,VALID,102.338,VALID,0,VALID,24.8615,VALID,69,VALID,0.782031,
2010-05-05, 00:03:04,VALID,1007.7,VALID,0,VALID,102.33,VALID,0,VALID,24.9023,VALID,84,VALID,0.0714844,
2010-05-05, 00:04:04,VALID,1007.68,VALID,0,VALID,102.322,VALID,0,VALID,24.9023,VALID,82,VALID,0.612891,
2010-05-05, 00:05:04,VALID,1007.69,VALID,0,VALID,102.353,VALID,0,VALID,24.8828,VALID,93,VALID,0.572656,
2010-05-05, 00:06:04,VALID,1007.68,VALID,0,VALID,102.322,VALID,0,VALID,24.9023,VALID,93,VALID,0.340234,
2010-05-05, 00:07:04,VALID,1007.65,VALID,0,VALID,102.345,VALID,0,VALID,24.8828,VALID,93,VALID,0,
2010-05-05, 00:08:04,VALID,1007.66,VALID,0,VALID,102.322,VALID,0,VALID,24.9023,VALID,93,VALID,0.0367187,
2010-05-05, 00:09:04,VALID,1007.64,VALID,0,VALID,102.315,VALID,0,VALID,24.8809,VALID,97,VALID,0.502734,
2010-05-05, 00:10:04,VALID,1007.64,VALID,0,VALID,102.345,VALID,0.105969,VALID,24.9023,VALID,111,VALID,0.412109,
2010-05-05, 00:11:04,VALID,1007.63,VALID,0,VALID,102.338,VALID,0,VALID,24.9023,VALID,111,VALID,0.502344,
2010-05-05, 00:12:04,VALID,1007.62,VALID,0,VALID,102.307,VALID,0,VALID,24.9218,VALID,111,VALID,0.35,
2010-05-05, 00:13:04,VALID,1007.63,VALID,0,VALID,102.33,VALID,0,VALID,24.9218,VALID,111,VALID,0.176563,
2010-05-05, 00:14:04,VALID,1007.65,VALID,0,VALID,102.261,VALID,0,VALID,24.9608,VALID,121,VALID,0.554297,
2010-05-05, 00:15:04,VALID,1007.65,VALID,0,VALID,102.299,VALID,0,VALID,24.9413,VALID,85,VALID,0.744141,
2010-05-05, 00:16:04,VALID,1007.66,VALID,0,VALID,102.33,VALID,0,VALID,24.9413,VALID,92,VALID,0.913281,
2010-05-05, 00:17:04,VALID,1007.66,VALID,0,VALID,102.33,VALID,0,VALID,24.9413,VALID,111,VALID,1.19375,
2010-05-05, 00:18:04,VALID,1007.66,VALID,0,VALID,102.345,VALID,0,VALID,24.9608,VALID,123,VALID,0.954687,
2010-05-05, 00:19:04,VALID,1007.67,VALID,0,VALID,102.292,VALID,0,VALID,24.9589,VALID,92,VALID,0.535937,
2010-05-05, 00:20:04,VALID,1007.68,VALID,0,VALID,102.345,VALID,0,VALID,24.9803,VALID,118,VALID,0.799219,
2010-05-05, 00:21:04,VALID,1007.66,VALID,0,VALID,102.345,VALID,0,VALID,24.9589,VALID,115,VALID,1.14609,
2010-05-05, 00:22:04,VALID,1007.68,VALID,0,VALID,102.345,VALID,0,VALID,24.9608,VALID,107,VALID,1.2168,
2010-05-05, 00:23:04,VALID,1007.65,VALID,0,VALID,102.36,VALID,0,VALID,24.9608,VALID,144,VALID,1.74023,
2010-05-05, 00:24:04,VALID,1007.67,VALID,0,VALID,102.376,VALID,0,VALID,24.9413,VALID,136,VALID,1.29453,
2010-05-05, 00:25:04,VALID,1007.65,VALID,0,VALID,102.368,VALID,0.105969,VALID,24.9394,VALID,132,VALID,1.53047,
2010-05-05, 00:26:04,VALID,1007.65,VALID,0,VALID,102.383,VALID,0,VALID,24.9413,VALID,119,VALID,0.928906,
2010-05-05, 00:27:04,VALID,1007.67,VALID,0,VALID,102.368,VALID,0,VALID,24.9413,VALID,130,VALID,1.34063,
2010-05-05, 00:28:04,VALID,1007.7,VALID,0,VALID,102.368,VALID,0,VALID,24.9608,VALID,129,VALID,0.531641,
2010-05-05, 00:29:04,VALID,1007.67,VALID,0,VALID,102.338,VALID,0.105969,VALID,24.9608,VALID,142,VALID,1.15117,
2010-05-05, 00:30:04,VALID,1007.68,VALID,0,VALID,102.345,VALID,0,VALID,24.9394,VALID,104,VALID,0.991016,
2010-05-05, 00:31:04,VALID,1007.68,VALID,0,VALID,102.338,VALID,0,VALID,24.9589,VALID,136,VALID,0.767187,
2010-05-05, 00:32:04,VALID,1007.69,VALID,0,VALID,102.368,VALID,0,VALID,24.9199,VALID,106,VALID,1.87305,
2010-05-05, 00:33:04,VALID,1007.69,VALID,0,VALID,102.36,VALID,0,VALID,24.9394,VALID,111,VALID,1.31016,
2010-05-05, 00:34:04,VALID,1007.69,VALID,0,VALID,102.353,VALID,0,VALID,24.9199,VALID,112,VALID,1.38711,
2010-05-05, 00:35:04,VALID,1007.66,VALID,0,VALID,102.383,VALID,0,VALID,24.9199,VALID,128,VALID,0.983984,
2010-05-05, 00:36:04,VALID,1007.67,VALID,0,VALID,102.376,VALID,0,VALID,24.9413,VALID,111,VALID,0.857031,
2010-05-05, 00:37:04,VALID,1007.65,VALID,0,VALID,102.36,VALID,0,VALID,24.9199,VALID,150,VALID,1.37539,
2010-05-05, 00:38:04,VALID,1007.66,VALID,0,VALID,102.376,VALID,0,VALID,24.9004,VALID,129,VALID,1.59141,
2010-05-05, 00:39:04,VALID,1007.64,VALID,0,VALID,102.399,VALID,0,VALID,24.9218,VALID,136,VALID,1.21094,
2010-05-05, 00:40:04,VALID,1007.63,VALID,0,VALID,102.383,VALID,0,VALID,24.9004,VALID,125,VALID,0.844922,
2010-05-05, 00:41:04,VALID,1007.59,VALID,0,VALID,102.391,VALID,0,VALID,24.9218,VALID,149,VALID,1.05625,
2010-05-05, 00:42:04,VALID,1007.61,VALID,0,VALID,102.383,VALID,0,VALID,24.8809,VALID,137,VALID,0.920313,
2010-05-05, 00:43:04,VALID,1007.63,VALID,0,VALID,102.383,VALID,0,VALID,24.9023,VALID,124,VALID,0.850781,
2010-05-05, 00:44:04,VALID,1007.63,VALID,0,VALID,102.391,VALID,0,VALID,24.8809,VALID,129,VALID,1.18047,
2010-05-05, 00:45:04,VALID,1007.64,VALID,0,VALID,102.376,VALID,0,VALID,24.9023,VALID,108,VALID,0.801562,
2010-05-05, 00:46:04,VALID,1007.66,VALID,0,VALID,102.36,VALID,0,VALID,24.9023,VALID,96,VALID,0.786328,
2010-05-05, 00:47:04,VALID,1007.65,VALID,0,VALID,102.376,VALID,0,VALID,24.9023,VALID,117,VALID,1.37891,
2010-05-05, 00:48:04,VALID,1007.66,VALID,0,VALID,102.376,VALID,0,VALID,24.9199,VALID,106,VALID,0.889844,
2010-05-05, 00:49:04,VALID,1007.67,VALID,0,VALID,102.399,VALID,0,VALID,24.9023,VALID,102,VALID,1.43672,
2010-05-05, 00:50:04,VALID,1007.67,VALID,0,VALID,102.368,VALID,0,VALID,24.9218,VALID,121,VALID,0.702734,
2010-05-05, 00:51:04,VALID,1007.68,VALID,0,VALID,102.368,VALID,0.105969,VALID,24.9004,VALID,118,VALID,0.860937,
2010-05-05, 00:52:04,VALID,1007.69,VALID,0,VALID,102.36,VALID,0,VALID,24.9413,VALID,123,VALID,0.727734,
2010-05-05, 00:53:04,VALID,1007.67,VALID,0,VALID,102.353,VALID,0,VALID,24.9199,VALID,118,VALID,0.316406,
2010-05-05, 00:54:04,VALID,1007.69,VALID,0,VALID,102.345,VALID,0,VALID,24.9608,VALID,108,VALID,0.515234,
2010-05-05, 00:55:04,VALID,1007.69,VALID,0,VALID,102.376,VALID,0,VALID,24.9199,VALID,66,VALID,0.803516,
2010-05-05, 00:56:04,VALID,1007.69,VALID,0,VALID,102.36,VALID,0,VALID,24.9413,VALID,80,VALID,1.02578,
2010-05-05, 00:57:04,VALID,1007.66,VALID,0,VALID,102.353,VALID,0.105969,VALID,24.9004,VALID,81,VALID,0.907031,
2010-05-05, 00:58:04,VALID,1007.65,VALID,0,VALID,102.36,VALID,0,VALID,24.9023,VALID,82,VALID,1.02031,
2010-05-05, 00:59:04,VALID,1007.63,VALID,0,VALID,102.353,VALID,0.105969,VALID,24.8809,VALID,92,VALID,0.590625,
2010-05-05, 01:00:04,VALID,1007.62,VALID,0,VALID,102.368,VALID,0,VALID,24.8809,VALID,90,VALID,0.611328,
2010-05-05, 01:01:04,VALID,1007.57,VALID,0,VALID,102.383,VALID,0,VALID,24.8633,VALID,82,VALID,0.278906,
2010-05-05, 01:02:04,VALID,1007.59,VALID,0,VALID,102.36,VALID,0,VALID,24.842,VALID,82,VALID,0.392188,
2010-05-05, 01:03:04,VALID,1007.58,VALID,0,VALID,102.368,VALID,0,VALID,24.8633,VALID,82,VALID,0.0371094,
2010-05-05, 01:04:04,VALID,1007.57,VALID,0,VALID,102.36,VALID,0,VALID,24.8615,VALID,149,VALID,0.775,
2010-05-05, 01:05:04,VALID,1007.57,VALID,0,VALID,102.383,VALID,0,VALID,24.8633,VALID,134,VALID,0.74375,
2010-05-05, 01:06:04,VALID,1007.55,VALID,0,VALID,102.376,VALID,0,VALID,24.8633,VALID,122,VALID,0.785547,
2010-05-05, 01:07:04,VALID,1007.55,VALID,0,VALID,102.368,VALID,0,VALID,24.842,VALID,121,VALID,0.711328,
2010-05-05, 01:08:04,VALID,1007.54,VALID,0,VALID,102.368,VALID,0,VALID,24.842,VALID,118,VALID,0.576563,
2010-05-05, 01:09:04,VALID,1007.54,VALID,0,VALID,102.391,VALID,0,VALID,24.8615,VALID,106,VALID,0.776172,
2010-05-05, 01:10:04,VALID,1007.49,VALID,0,VALID,102.368,VALID,0,VALID,24.842,VALID,114,VALID,0.787109,
2010-05-05, 01:11:04,VALID,1007.49,VALID,0,VALID,102.376,VALID,0,VALID,24.842,VALID,102,VALID,0.839063,
2010-05-05, 01:12:04,VALID,1007.44,VALID,0,VALID,102.383,VALID,0,VALID,24.8615,VALID,120,VALID,0.904688,
2010-05-05, 01:13:04,VALID,1007.42,VALID,0,VALID,102.383,VALID,0,VALID,24.8615,VALID,119,VALID,0.994531,
2010-05-05, 01:14:04,VALID,1007.39,VALID,0,VALID,102.368,VALID,0,VALID,24.8615,VALID,131,VALID,0.868359,
2010-05-05, 01:15:04,VALID,1007.37,VALID,0,VALID,102.376,VALID,0,VALID,24.8615,VALID,147,VALID,0.844531,
2010-05-05, 01:16:04,VALID,1007.35,VALID,0,VALID,102.383,VALID,0.105969,VALID,24.8615,VALID,144,VALID,0.596484,
2010-05-05, 01:17:04,VALID,1007.36,VALID,0,VALID,102.376,VALID,0.105969,VALID,24.8225,VALID,125,VALID,1.06445,
2010-05-05, 01:18:04,VALID,1007.33,VALID,0,VALID,102.391,VALID,0,VALID,24.8438,VALID,133,VALID,0.960547,
2010-05-05, 01:19:04,VALID,1007.35,VALID,0,VALID,102.383,VALID,0,VALID,24.8438,VALID,141,VALID,0.535547,
2010-05-05, 01:20:04,VALID,1007.32,VALID,0,VALID,102.383,VALID,0,VALID,24.8438,VALID,142,VALID,0.475391,
2010-05-05, 01:21:04,VALID,1007.3,VALID,0,VALID,102.383,VALID,0,VALID,24.803,VALID,138,VALID,0.826172,
2010-05-05, 01:22:04,VALID,1007.29,VALID,0,VALID,102.399,VALID,0,VALID,24.8244,VALID,137,VALID,1.08281,
2010-05-05, 01:23:04,VALID,1007.27,VALID,0,VALID,102.383,VALID,0.105969,VALID,24.803,VALID,131,VALID,0.934375,
2010-05-05, 01:24:04,VALID,1007.24,VALID,0,VALID,102.376,VALID,0,VALID,24.8049,VALID,116,VALID,0.883203,
2010-05-05, 01:25:04,VALID,1007.23,VALID,0,VALID,102.399,VALID,0.105969,VALID,24.7835,VALID,103,VALID,1.15117,
2010-05-05, 01:26:04,VALID,1007.21,VALID,0,VALID,102.383,VALID,0,VALID,24.8244,VALID,112,VALID,0.592969,
2010-05-05, 01:27:04,VALID,1007.2,VALID,0,VALID,102.391,VALID,0,VALID,24.8049,VALID,81,VALID,0.826953,
2010-05-05, 01:28:04,VALID,1007.18,VALID,0,VALID,102.414,VALID,0,VALID,24.8244,VALID,94,VALID,0.730469,
2010-05-05, 01:29:04,VALID,1007.17,VALID,0,VALID,102.406,VALID,0,VALID,24.803,VALID,104,VALID,0.627734,
2010-05-05, 01:30:04,VALID,1007.15,VALID,0,VALID,102.406,VALID,0.105969,VALID,24.8438,VALID,85,VALID,0.477734,
2010-05-05, 01:31:04,VALID,1007.14,VALID,0,VALID,102.399,VALID,0,VALID,24.8225,VALID,86,VALID,0.0480469,
2010-05-05, 01:32:04,VALID,1007.14,VALID,0,VALID,102.383,VALID,0.105969,VALID,24.8225,VALID,74,VALID,0.326562,
2010-05-05, 01:33:04,VALID,1007.16,VALID,0,VALID,102.391,VALID,0.105969,VALID,24.803,VALID,91,VALID,0.301172,
2010-05-05, 01:34:04,VALID,1007.14,VALID,0,VALID,102.399,VALID,0.105969,VALID,24.803,VALID,91,VALID,0.210547,
2010-05-05, 01:35:04,VALID,1007.15,VALID,0,VALID,102.383,VALID,0,VALID,24.7835,VALID,91,VALID,0.342578,
2010-05-05, 01:36:04,VALID,1007.14,VALID,0,VALID,102.414,VALID,0,VALID,24.7854,VALID,87,VALID,0.544141,
2010-05-05, 01:37:04,VALID,1007.09,VALID,0,VALID,102.399,VALID,0.105969,VALID,24.764,VALID,90,VALID,0.401172,
2010-05-05, 01:38:04,VALID,1007.11,VALID,0,VALID,102.399,VALID,0,VALID,24.764,VALID,77,VALID,0.642969,
2010-05-05, 01:39:04,VALID,1007.09,VALID,0,VALID,102.421,VALID,0,VALID,24.7854,VALID,74,VALID,0.460156,
2010-05-05, 01:40:04,VALID,1007.06,VALID,0,VALID,102.414,VALID,0,VALID,24.7445,VALID,74,VALID,0.255078,
2010-05-05, 01:41:04,VALID,1007.08,VALID,0,VALID,102.383,VALID,0,VALID,24.7659,VALID,74,VALID,0.239453,
2010-05-05, 01:42:04,VALID,1007.08,VALID,0,VALID,102.406,VALID,0,VALID,24.7854,VALID,83,VALID,0.846484,
2010-05-05, 01:43:04,VALID,1007.07,VALID,0,VALID,102.406,VALID,0,VALID,24.7854,VALID,141,VALID,0.640234,
2010-05-05, 01:44:04,VALID,1007.05,VALID,0,VALID,102.421,VALID,0,VALID,24.7445,VALID,104,VALID,0.917578,
2010-05-05, 01:45:04,VALID,1007.03,VALID,0,VALID,102.406,VALID,0,VALID,24.7659,VALID,111,VALID,0.925391,
2010-05-05, 01:46:04,VALID,1007.06,VALID,0,VALID,102.383,VALID,0,VALID,24.764,VALID,151,VALID,0.844141,
2010-05-05, 01:47:04,VALID,1007.08,VALID,0,VALID,102.383,VALID,0.105969,VALID,24.7659,VALID,111,VALID,0.740625,
2010-05-05, 01:48:04,VALID,1007.05,VALID,0,VALID,102.368,VALID,0,VALID,24.725,VALID,148,VALID,1.31367,
2010-05-05, 01:49:04,VALID,1007.05,VALID,0,VALID,102.338,VALID,0,VALID,24.7269,VALID,142,VALID,1.10273,
2010-05-05, 01:50:04,VALID,1007.06,VALID,0,VALID,102.307,VALID,0.105969,VALID,24.725,VALID,137,VALID,1.12227,
2010-05-05, 01:51:04,VALID,1007.04,VALID,0,VALID,102.299,VALID,0.105969,VALID,24.725,VALID,126,VALID,0.796094,
2010-05-05, 01:52:04,VALID,1007.09,VALID,0,VALID,102.292,VALID,0,VALID,24.725,VALID,121,VALID,0.751172,
2010-05-05, 01:53:04,VALID,1007.07,VALID,0,VALID,102.269,VALID,0.105969,VALID,24.7464,VALID,118,VALID,0.464453,
2010-05-05, 01:54:04,VALID,1007.03,VALID,0,VALID,102.261,VALID,0,VALID,24.7464,VALID,108,VALID,0.616406,
2010-05-05, 01:55:04,VALID,1007.01,VALID,0,VALID,102.246,VALID,0,VALID,24.7269,VALID,98,VALID,0.769922,
2010-05-05, 01:56:04,VALID,1007.03,VALID,0,VALID,102.216,VALID,0,VALID,24.7269,VALID,106,VALID,0.944922,
2010-05-05, 01:57:04,VALID,1006.98,VALID,0,VALID,102.2,VALID,0,VALID,24.7269,VALID,106,VALID,0.548047,
2010-05-05, 01:58:04,VALID,1006.99,VALID,0,VALID,102.208,VALID,0,VALID,24.7269,VALID,128,VALID,0.626953,
2010-05-05, 01:59:04,VALID,1006.94,VALID,0,VALID,102.193,VALID,0,VALID,24.7269,VALID,127,VALID,0.525781,
2010-05-05, 02:00:04,VALID,1006.94,VALID,0,VALID,102.2,VALID,0,VALID,24.7269,VALID,127,VALID,0.0464844,
2010-05-05, 02:01:04,VALID,1006.93,VALID,0,VALID,102.216,VALID,0,VALID,24.7055,VALID,107,VALID,0.284375,
2010-05-05, 02:02:04,VALID,1006.93,VALID,0,VALID,102.238,VALID,0,VALID,24.7074,VALID,74,VALID,0.482031,
2010-05-05, 02:03:04,VALID,1006.96,VALID,0,VALID,102.231,VALID,0,VALID,24.6879,VALID,73,VALID,0.596094,
2010-05-05, 02:04:04,VALID,1006.94,VALID,0,VALID,102.254,VALID,0.105969,VALID,24.6666,VALID,60,VALID,0.484375,
2010-05-05, 02:05:04,VALID,1006.93,VALID,0,VALID,102.269,VALID,0.105969,VALID,24.6666,VALID,70,VALID,0.458984,
2010-05-05, 02:06:04,VALID,1006.94,VALID,0,VALID,102.261,VALID,0,VALID,24.6684,VALID,86,VALID,0.435156,
2010-05-05, 02:07:04,VALID,1006.9,VALID,0,VALID,102.277,VALID,0,VALID,24.6879,VALID,86,VALID,0.416797,
2010-05-05, 02:08:04,VALID,1006.93,VALID,0,VALID,102.284,VALID,0,VALID,24.6879,VALID,86,VALID,0.413672,
2010-05-05, 02:09:04,VALID,1006.92,VALID,0,VALID,102.277,VALID,0,VALID,24.6666,VALID,86,VALID,0.265625,
2010-05-05, 02:10:04,VALID,1006.89,VALID,0,VALID,102.284,VALID,0,VALID,24.6879,VALID,86,VALID,0.109375,
2010-05-05, 02:11:04,VALID,1006.89,VALID,0,VALID,102.299,VALID,0,VALID,24.6666,VALID,86,VALID,0.531641,
2010-05-05, 02:12:04,VALID,1006.92,VALID,0,VALID,102.299,VALID,0,VALID,24.6879,VALID,86,VALID,0.267969,
2010-05-05, 02:13:04,VALID,1006.91,VALID,0,VALID,102.307,VALID,0.105969,VALID,24.7074,VALID,86,VALID,0.339063,
2010-05-05, 02:14:04,VALID,1006.88,VALID,0,VALID,102.322,VALID,0,VALID,24.7074,VALID,86,VALID,0.299609,
2010-05-05, 02:15:04,VALID,1006.87,VALID,0,VALID,102.33,VALID,0,VALID,24.6666,VALID,100,VALID,0.548828,
2010-05-05, 02:16:04,VALID,1006.88,VALID,0,VALID,102.338,VALID,0,VALID,24.6879,VALID,155,VALID,0.61875,
2010-05-05, 02:17:04,VALID,1006.85,VALID,0,VALID,102.284,VALID,0,VALID,24.6471,VALID,157,VALID,0.596875,
2010-05-05, 02:18:04,VALID,1006.85,VALID,0,VALID,102.299,VALID,0,VALID,24.6276,VALID,168,VALID,0.786719,
2010-05-05, 02:19:04,VALID,1006.84,VALID,0,VALID,102.284,VALID,0.105969,VALID,24.6684,VALID,141,VALID,0.644141,
2010-05-05, 02:20:04,VALID,1006.86,VALID,0,VALID,102.299,VALID,0,VALID,24.6489,VALID,141,VALID,0.339453,
2010-05-05, 02:21:04,VALID,1006.83,VALID,0,VALID,102.292,VALID,0,VALID,24.6489,VALID,139,VALID,0.821875,
2010-05-05, 02:22:04,VALID,1006.85,VALID,0,VALID,102.299,VALID,0,VALID,24.6276,VALID,131,VALID,0.344922,
2010-05-05, 02:23:04,VALID,1006.83,VALID,0,VALID,102.299,VALID,0,VALID,24.6294,VALID,131,VALID,0.728906,
2010-05-05, 02:24:04,VALID,1006.84,VALID,0,VALID,102.322,VALID,0,VALID,24.6294,VALID,143,VALID,0.821875,
2010-05-05, 02:25:04,VALID,1006.85,VALID,0,VALID,102.345,VALID,0.105969,VALID,24.6294,VALID,125,VALID,0.883984,
2010-05-05, 02:26:04,VALID,1006.86,VALID,0,VALID,102.322,VALID,0.105969,VALID,24.6081,VALID,112,VALID,1.00156,
2010-05-05, 02:27:04,VALID,1006.89,VALID,0,VALID,102.322,VALID,0,VALID,24.6489,VALID,113,VALID,0.491016,
2010-05-05, 02:28:04,VALID,1006.85,VALID,0,VALID,102.33,VALID,0,VALID,24.6081,VALID,130,VALID,1.09219,
2010-05-05, 02:29:04,VALID,1006.86,VALID,0,VALID,102.307,VALID,0.105969,VALID,24.6489,VALID,103,VALID,0.668359,
2010-05-05, 02:30:04,VALID,1006.87,VALID,0,VALID,102.322,VALID,0,VALID,24.6294,VALID,117,VALID,1.06445,
2010-05-05, 02:31:04,VALID,1006.87,VALID,0,VALID,102.284,VALID,0.105969,VALID,24.6276,VALID,82,VALID,0.859375,
2010-05-05, 02:32:04,VALID,1006.86,VALID,0,VALID,102.277,VALID,0,VALID,24.6276,VALID,58,VALID,1.14453,
2010-05-05, 02:33:04,VALID,1006.85,VALID,0,VALID,102.269,VALID,0.105969,VALID,24.6276,VALID,59,VALID,0.535547,
2010-05-05, 02:34:04,VALID,1006.85,VALID,0,VALID,102.269,VALID,0.105969,VALID,24.6294,VALID,41,VALID,0.971484,
2010-05-05, 02:35:04,VALID,1006.84,VALID,0,VALID,102.261,VALID,0.105969,VALID,24.6081,VALID,42,VALID,0.713672,
2010-05-05, 02:36:04,VALID,1006.84,VALID,0,VALID,102.238,VALID,0,VALID,24.6099,VALID,51,VALID,0.592969,
2010-05-05, 02:37:04,VALID,1006.85,VALID,0,VALID,102.238,VALID,0,VALID,24.5886,VALID,51,VALID,0.444922,
2010-05-05, 02:38:04,VALID,1006.84,VALID,0,VALID,102.238,VALID,0,VALID,24.5691,VALID,61,VALID,0.851953,
2010-05-05, 02:39:04,VALID,1006.88,VALID,0,VALID,102.261,VALID,0.105969,VALID,24.5691,VALID,65,VALID,0.527734,
2010-05-05, 02:40:04,VALID,1006.86,VALID,0,VALID,102.261,VALID,0.105969,VALID,24.571,VALID,65,VALID,0.199609,
2010-05-05, 02:41:04,VALID,1006.91,VALID,0,VALID,102.269,VALID,0,VALID,24.5301,VALID,64,VALID,0.615234,
2010-05-05, 02:42:04,VALID,1006.88,VALID,0,VALID,102.299,VALID,0.105969,VALID,24.5301,VALID,52,VALID,0.142578,
2010-05-05, 02:43:04,VALID,1006.9,VALID,0,VALID,102.307,VALID,0,VALID,24.5301,VALID,52,VALID,0.214062,
2010-05-05, 02:44:04,VALID,1006.91,VALID,0,VALID,102.322,VALID,0.105969,VALID,24.5106,VALID,52,VALID,0.130078,
2010-05-05, 02:45:04,VALID,1006.91,VALID,0,VALID,102.322,VALID,0,VALID,24.5125,VALID,52,VALID,0.0722656,
2010-05-05, 02:46:04,VALID,1006.92,VALID,0,VALID,102.338,VALID,0.105969,VALID,24.5125,VALID,52,VALID,0.185937,
2010-05-05, 02:47:04,VALID,1006.94,VALID,0,VALID,102.376,VALID,0,VALID,24.4911,VALID,52,VALID,0.186328,
2010-05-05, 02:48:04,VALID,1006.95,VALID,0,VALID,102.345,VALID,0,VALID,24.4717,VALID,52,VALID,0.176172,
2010-05-05, 02:49:04,VALID,1006.94,VALID,0,VALID,102.368,VALID,0,VALID,24.4717,VALID,52,VALID,0,
2010-05-05, 02:50:04,VALID,1006.97,VALID,0,VALID,102.399,VALID,0,VALID,24.4717,VALID,52,VALID,0,
2010-05-05, 02:51:04,VALID,1006.94,VALID,0,VALID,102.383,VALID,0,VALID,24.4717,VALID,52,VALID,0,
2010-05-05, 02:52:04,VALID,1006.95,VALID,0,VALID,102.399,VALID,0,VALID,24.4735,VALID,52,VALID,0,
2010-05-05, 02:53:04,VALID,1006.95,VALID,0,VALID,102.406,VALID,0,VALID,24.4522,VALID,52,VALID,0,
2010-05-05, 02:54:04,VALID,1006.92,VALID,0,VALID,102.421,VALID,0.105969,VALID,24.4735,VALID,52,VALID,0,
2010-05-05, 02:55:04,VALID,1006.95,VALID,0,VALID,102.406,VALID,0.105969,VALID,24.4522,VALID,52,VALID,0,
2010-05-05, 02:56:04,VALID,1006.97,VALID,0,VALID,102.406,VALID,0.105969,VALID,24.4522,VALID,52,VALID,0,
2010-05-05, 02:57:04,VALID,1006.94,VALID,0,VALID,102.406,VALID,0,VALID,24.4327,VALID,52,VALID,0,
2010-05-05, 02:58:04,VALID,1006.96,VALID,0,VALID,102.406,VALID,0.105969,VALID,24.4522,VALID,52,VALID,0.261719,
2010-05-05, 02:59:04,VALID,1006.95,VALID,0,VALID,102.429,VALID,0,VALID,24.4735,VALID,52,VALID,0.0535156,
2010-05-05, 03:00:04,VALID,1006.96,VALID,0,VALID,102.429,VALID,0.105969,VALID,24.4522,VALID,52,VALID,0.130469,
2010-05-05, 03:01:04,VALID,1006.95,VALID,0,VALID,102.421,VALID,0.105969,VALID,24.4327,VALID,52,VALID,0,
2010-05-05, 03:02:04,VALID,1006.98,VALID,0,VALID,102.421,VALID,0,VALID,24.4735,VALID,52,VALID,0,
2010-05-05, 03:03:04,VALID,1006.96,VALID,0,VALID,102.421,VALID,0,VALID,24.4522,VALID,52,VALID,0.372656,
2010-05-05, 03:04:04,VALID,1006.96,VALID,0,VALID,102.399,VALID,0.105969,VALID,24.4522,VALID,52,VALID,0.292188,
2010-05-05, 03:05:04,VALID,1006.98,VALID,0,VALID,102.391,VALID,0,VALID,24.4717,VALID,52,VALID,0.0785156,
2010-05-05, 03:06:04,VALID,1006.97,VALID,0,VALID,102.376,VALID,0,VALID,24.493,VALID,52,VALID,0,
2010-05-05, 03:07:04,VALID,1006.99,VALID,0,VALID,102.391,VALID,0.105969,VALID,24.493,VALID,52,VALID,0.207031,
2010-05-05, 03:08:04,VALID,1006.98,VALID,0,VALID,102.391,VALID,0,VALID,24.4911,VALID,98,VALID,0.682813,
2010-05-05, 03:09:04,VALID,1007,VALID,0,VALID,102.376,VALID,0.105969,VALID,24.5125,VALID,62,VALID,0.507031,
2010-05-05, 03:10:04,VALID,1007,VALID,0,VALID,102.399,VALID,0,VALID,24.5106,VALID,97,VALID,0.966406,
2010-05-05, 03:11:04,VALID,1007.02,VALID,0,VALID,102.406,VALID,0,VALID,24.5515,VALID,98,VALID,0.938281,
2010-05-05, 03:12:04,VALID,1007.05,VALID,0,VALID,102.437,VALID,0,VALID,24.5515,VALID,75,VALID,0.744922,
2010-05-05, 03:13:04,VALID,1007.04,VALID,0,VALID,102.429,VALID,0,VALID,24.5496,VALID,88,VALID,0.583203,
2010-05-05, 03:14:04,VALID,1007.04,VALID,0,VALID,102.421,VALID,0.105969,VALID,24.5496,VALID,87,VALID,0.610937,
2010-05-05, 03:15:04,VALID,1007.05,VALID,0,VALID,102.452,VALID,0.105969,VALID,24.5496,VALID,85,VALID,0.783984,
2010-05-05, 03:16:04,VALID,1007.06,VALID,0,VALID,102.46,VALID,0,VALID,24.5515,VALID,92,VALID,0.426172,
2010-05-05, 03:17:04,VALID,1007.07,VALID,0,VALID,102.46,VALID,0.105969,VALID,24.5496,VALID,90,VALID,0.541797,
2010-05-05, 03:18:04,VALID,1007.09,VALID,0,VALID,102.429,VALID,0,VALID,24.5691,VALID,96,VALID,0.389844,
2010-05-05, 03:19:04,VALID,1007.09,VALID,0,VALID,102.452,VALID,0.105969,VALID,24.5691,VALID,100,VALID,0.849609,
2010-05-05, 03:20:04,VALID,1007.11,VALID,0,VALID,102.429,VALID,0.105969,VALID,24.5691,VALID,105,VALID,0.698438,
2010-05-05, 03:21:04,VALID,1007.11,VALID,0,VALID,102.437,VALID,0.105969,VALID,24.5886,VALID,103,VALID,0.498828,
2010-05-05, 03:22:04,VALID,1007.11,VALID,0,VALID,102.452,VALID,0.105969,VALID,24.5886,VALID,119,VALID,1.26758,
2010-05-05, 03:23:04,VALID,1007.14,VALID,0,VALID,102.46,VALID,0.105969,VALID,24.5691,VALID,116,VALID,1.14844,
2010-05-05, 03:24:04,VALID,1007.15,VALID,0,VALID,102.467,VALID,0,VALID,24.5886,VALID,116,VALID,0.949609,
2010-05-05, 03:25:04,VALID,1007.14,VALID,0,VALID,102.452,VALID,0.105969,VALID,24.5886,VALID,121,VALID,1.3332,
2010-05-05, 03:26:04,VALID,1007.14,VALID,0,VALID,102.444,VALID,0,VALID,24.5691,VALID,110,VALID,1.30117,
2010-05-05, 03:27:04,VALID,1007.2,VALID,0,VALID,102.452,VALID,0.105969,VALID,24.5905,VALID,110,VALID,0.905078,
2010-05-05, 03:28:04,VALID,1007.19,VALID,0,VALID,102.437,VALID,0,VALID,24.5691,VALID,107,VALID,1.04219,
2010-05-05, 03:29:04,VALID,1007.19,VALID,0,VALID,102.444,VALID,0.105969,VALID,24.5691,VALID,118,VALID,1.84531,
2010-05-05, 03:30:04,VALID,1007.2,VALID,0,VALID,102.429,VALID,0,VALID,24.571,VALID,117,VALID,1.33359,
2010-05-05, 03:31:04,VALID,1007.25,VALID,0,VALID,102.444,VALID,0,VALID,24.5515,VALID,126,VALID,1.73164,
2010-05-05, 03:32:04,VALID,1007.25,VALID,0,VALID,102.429,VALID,0,VALID,24.5301,VALID,102,VALID,1.6168,
2010-05-05, 03:33:04,VALID,1007.25,VALID,0,VALID,102.429,VALID,0,VALID,24.5515,VALID,103,VALID,1.42539,
2010-05-05, 03:34:04,VALID,1007.23,VALID,0,VALID,102.429,VALID,0,VALID,24.5106,VALID,118,VALID,1.48633,
2010-05-05, 03:35:04,VALID,1007.26,VALID,0,VALID,102.414,VALID,0.105969,VALID,24.5301,VALID,98,VALID,1.20039,
2010-05-05, 03:36:04,VALID,1007.25,VALID,0,VALID,102.444,VALID,0,VALID,24.5301,VALID,95,VALID,1.43906,
2010-05-05, 03:37:04,VALID,1007.24,VALID,0,VALID,102.421,VALID,0,VALID,24.5515,VALID,89,VALID,1.05078,
2010-05-05, 03:38:04,VALID,1007.23,VALID,0,VALID,102.444,VALID,0,VALID,24.5106,VALID,98,VALID,1.83633,
2010-05-05, 03:39:04,VALID,1007.24,VALID,0,VALID,102.444,VALID,0,VALID,24.532,VALID,105,VALID,1.86797,
2010-05-05, 03:40:04,VALID,1007.25,VALID,0,VALID,102.429,VALID,0,VALID,24.532,VALID,97,VALID,1.32461,
2010-05-05, 03:41:04,VALID,1007.29,VALID,0,VALID,102.452,VALID,0,VALID,24.4911,VALID,99,VALID,2.56523,
2010-05-05, 03:42:04,VALID,1007.26,VALID,0,VALID,102.429,VALID,0.105969,VALID,24.5125,VALID,91,VALID,1.01445,